Location: Unspecified
(41.1637°N, 24.2901°E)
Time: 14:01:52
(UTC+01:00)

ISS - Pass Details

Date: 18 January 2021
Orbit: 418 x 421 km, 51.6° (Epoch: 27 January)

Event Time Altitude Azimuth Distance (km) Brightness Sun altitude
Rises 17:01:58 0° 189° (S) 2,353 0.5 -7.6°
Reaches altitude 10° 17:04:51 10° 161° (SSE) 1,495 -0.9 -8.1°
Maximum altitude 17:06:36 14° 130° (SE) 1,300 -1.6 -8.5°
Drops below altitude 10° 17:08:17 10° 99° (E) 1,487 -1.5 -8.8°
Enters shadow 17:08:28 10° 97° (E) 1,528 -1.5 -8.8°
